SCP
0 0 0 0 0 0 0 0 0 0 -0 0 0 0 0 0 0 -0 -0 0 0 0 0 0 0 0 0 0 0 0 0 0 0 0 0 0 0 0 0 0 0 0 0 0
0 0 0 0 0 0 0 0 0 0 -0 0 0 0 0 0 0 -0 0 0 0 0 0 0 0 0 0 0 0 0 0 0 0 0 0 1 0 0 0 0 0 0 0 0
0 0 0 0 0 0 0 0 0 -0 -0 0 -0 0 0 0 -0 -0 0 0 0 0 0 0 0 0 0 0 0 0 0 0 0 0 0 0 0 0 0 0 0 0 0 0
0 0 0 0 0 0 0 0 0 0 0 0 0 0 0 0 0 0 0 0 0 0 0 0 0 0 -0 0 0 0 0 0 0 0 0 0 0 0 0 0 0 0 0 0
0 0 0 0 0 0 0 -0 0 0 0 -0 -0 -0 0 0 0 0 0 0 0 0 0 0 0 0 0 0 0 0 0 0 0 0 0 0 0 0 0 0 0 0 0 0
0 0 0 0 0 0 0 -0 0 -0 -0 -0 -0 -0 0 0 0 0 0 0 0 0 0 0 0 0 0 0 0 0 0 0 0 0 0 0 0 0 0 0 0 0 0 0
0 0 0 0 0 -0 -0 -0 -0 -0 -0 -0 0 0 0 -0 0 0 0 0 0 0 0 0 0 0 0 0 0 0 0 0 0 0 0 0 0 0 0 0 0 0 0 0
0 0 0 0 -0 -0 0 -0 0 -0 0 -0 0 0 0 0 -0 -0 -0 0 0 0 0 0 0 0 0 0 0 0 0 0 0 0 0 0 0 0 0 0 0 0 0 0
0 0 0 0 0 0 0 -0 -0 0 -0 0 0 0 -0 0 0 -0 0 0 0 0 0 -0 0 0 0 0 0 0 0 0 0 0 0 0 0 0 0 0 0 0 0 0
0 0 0 0 0 0 0 0 -0 0 0 0 0 0 -0 0 -0 -0 0 0 0 0 0 0 0 0 0 0 0 0 0 0 0 0 0 0 0 0 0 0 0 0 0 0
0 0 -0 0 0 0 0 0 0 0 0 0 0 0 -0 0 0 0 0 0 0 0 0 0 0 0 0 0 0 0 0 0 0 0 0 0 0 0 0 0 0 0 0 0
0 0 0 0 0 0 0 0 0 0 0 0 0 0 -0 0 -0 -0 -0 0 0 -0 -0 0 0 0 0 0 0 0 0 0 0 0 0 0 0 0 0 0 0 0 0 0
0 0 0 0 0 0 0 -0 0 0 0 0 0 0 -0 -0 -0 -0 -0 0 0 -0 0 0 0 0 0 0 0 0 0 0 0 0 0 0 0 0 0 0 0 0 0 0
0 0 0 0 -0 0 0 -0 0 0 0 0 0 -0 -0 -0 -0 -0 -0 -0 0 -0 0 -0 0 0 0 0 0 0 0 0 0 0 0 0 0 0 0 0 0 0 0 0
0 0 0 0 0 -0 -0 0 0 0 0 0 0 -0 -0 -0 -0 -0 -0 -0 0 0 -0 0 0 0 0 0 0 0 0 0 0 0 0 0 0 0 0 0 0 -0 0 0
0 0 0 0 -0 -0 0 0 0 0 0 0 0 -0 -0 -0 -0 -0 -0 -0 0 0 0 0 0 0 0 0 0 0 0 0 0 0 0 0 0 0 0 0 0 -0 0 0
0 -0 0 -0 -0 -0 0 0 0 0 0 -0 -0 -0 -0 0 -0 -0 -0 0 0 0 0 0 0 0 0 0 0 0 0 0 0 0 0 0 0 0 0 0 0 0 0 0
0 0 0 -0 -0 0 0 0 0 0 0 -0 -0 -0 -0 0 0 -0 -0 0 0 0 0 0 0 0 0 0 0 0 0 0 0 0 0 0 0 0 0 0 0 0 0 0
0 0 0 -0 -0 0 0 0 0 0 -0 0 -0 -0 0 0 0 -0 -0 0 0 0 0 0 0 0 0 0 0 0 0 0 0 0 0 0 0 0 0 0 0 0 0 0
0 0 0 -0 -0 0 0 0 0 0 0 0 -0 -0 0 0 0 0 0 0 0 0 0 0 0 0 0 0 0 0 0 0 0 0 0 0 0 0 0 0 0 0 0 0
0 0 0 -0 -0 0 0 0 0 0 0 0 0 0 0 0 0 0 0 0 0 0 0 0 0 0 0 0 0 0 0 0 0 0 0 0 0 0 0 0 0 0 0 0
0 0 -0 -0 -0 0 -0 0 0 0 0 0 0 0 0 0 0 0 0 0 0 0 0 0 0 0 0 0 0 0 0 0 0 0 0 0 0 0 0 0 0 0 0 0
0 0 -0 -0 -0 0 -0 0 0 0 0 0 0 0 0 0 0 0 0 0 0 0 0 0 0 0 0 0 0 0 0 0 0 0 0 0 0 0 0 0 0 0 0 0
0 0 -0 -0 -0 0 -0 0 0 0 0 0 0 0 0 0 0 0 0 0 0 0 0 0 0 0 0 0 0 0 0 0 0 0 0 0 0 0 0 0 0 0 0 0
0 -0 -0 -0 -0 -0 0 0 0 0 0 0 0 0 0 0 0 0 0 0 0 0 0 0 0 0 0 0 0 0 0 0 0 0 0 0 0 0 0 0 0 0 0 0
0 -0 -0 -0 -0 -0 0 0 0 0 0 0 0 0 0 0 0 0 0 0 0 0 0 0 0 0 0 0 0 0 0 0 0 0 0 0 0 0 0 0 0 0 0 0
0 0 -0 -0 -0 0 0 0 0 -0 0 0 0 0 0 0 0 0 0 0 0 0 0 0 0 0 0 0 0 0 0 0 0 0 0 0 0 0 0 0 0 0 0 0
Wind_Speed_500mb
21 29 23 31 39 47 34 34 28 39 36 33 16 12 27 34 44 72 79 72 59 56 56 53 60 64 57 42 26 23 30 21 18 22 38 46 43 40 29 22 32 38 45 48
17 25 28 41 41 44 43 26 12 14 32 15 10 22 39 52 58 74 72 78 66 56 54 54 52 66 56 54 38 22 26 28 24 26 18 41 46 43 29 29 40 43 44 45
21 13 23 20 27 14 10 8 8 16 29 13 20 28 52 63 72 80 66 59 66 65 62 62 61 57 65 62 47 37 23 26 35 32 19 27 42 46 36 33 43 60 52 64
13 11 10 10 6 6 16 16 23 23 14 25 38 55 66 74 73 68 64 73 79 80 72 64 58 59 60 65 54 44 28 16 28 26 18 30 43 42 32 34 43 57 69 65
7 6 24 14 4 3 10 36 6 6 24 46 59 72 58 44 44 69 80 88 83 76 64 59 57 54 60 59 67 49 36 13 25 23 17 28 37 34 23 53 60 60 61 64
3 7 10 7 9 28 1 19 4 13 22 37 57 33 37 68 77 86 88 83 79 69 67 63 60 52 61 63 64 59 41 16 26 20 22 35 50 54 50 56 56 56 57 57
5 9 14 6 35 17 7 9 33 37 50 55 34 39 86 93 95 90 89 85 73 72 67 52 51 54 60 64 60 71 44 17 31 26 25 42 57 46 60 64 66 61 59 57
7 8 13 47 41 6 13 54 45 52 55 65 74 81 76 82 82 88 90 81 74 77 56 48 61 50 56 60 56 69 46 23 40 35 27 39 47 55 64 71 69 64 62 65
8 12 39 53 38 28 31 38 53 59 70 70 71 74 74 81 81 85 76 74 69 54 44 51 28 40 48 55 45 68 50 36 41 39 36 40 45 71 76 75 74 70 71 77
19 10 16 50 40 40 48 53 59 59 71 68 69 74 76 77 81 78 71 75 63 49 35 27 20 35 46 45 49 57 45 52 45 45 50 55 58 74 79 77 77 76 78 82
17 30 46 21 44 46 59 60 62 71 65 72 73 77 73 75 78 68 73 67 55 39 22 17 22 32 48 50 50 58 46 58 53 46 50 64 62 69 73 70 69 77 80 79
9 51 23 39 40 56 63 58 75 70 76 72 71 72 69 71 63 64 69 55 45 24 16 13 28 34 51 41 54 56 64 62 61 59 64 66 66 72 66 63 64 70 70 79
22 37 43 47 55 62 58 72 68 66 68 73 70 64 59 57 56 58 54 47 37 17 14 14 38 48 42 35 48 53 67 64 63 64 65 67 70 76 78 62 66 66 73 72
28 38 36 43 61 67 69 67 66 65 64 60 58 55 51 45 45 49 49 43 24 6 21 33 45 47 42 38 49 59 61 60 61 62 65 68 75 77 76 72 74 76 67 77
28 36 42 51 61 66 63 65 66 63 64 63 57 53 44 42 42 45 41 32 12 18 24 32 36 38 33 43 50 56 61 56 67 70 67 69 79 81 80 84 88 90 96 76
38 46 50 51 58 60 65 62 61 61 61 57 57 52 43 38 30 34 31 27 20 32 35 36 39 33 37 46 51 56 53 62 60 67 68 78 84 87 91 93 93 100 96 85
46 45 46 48 52 59 59 55 52 50 51 52 54 47 35 33 23 28 26 23 16 32 34 46 47 39 38 34 37 41 59 63 61 62 72 80 85 86 93 97 98 98 97 91
33 33 34 42 47 56 56 53 49 45 48 46 40 37 32 32 30 26 23 17 16 27 37 48 50 48 37 31 32 42 53 64 68 65 77 80 82 86 93 98 102 108 105 103
34 36 35 39 42 51 48 48 48 44 41 42 32 33 26 26 24 22 17 16 24 29 34 45 47 45 44 41 39 42 54 66 69 70 74 81 83 89 97 98 104 108 112 111
33 34 34 37 42 48 48 44 45 44 45 40 40 31 28 25 21 29 29 27 26 29 26 33 42 43 47 51 46 56 60 62 67 70 73 81 86 93 99 102 102 105 108 94
32 33 31 38 37 46 49 39 41 44 47 58 54 41 30 24 27 30 33 35 24 20 25 28 39 45 45 48 51 59 61 62 64 67 74 81 88 91 98 102 106 113 98 86
33 28 31 35 36 38 46 35 35 39 46 51 63 57 40 34 30 27 29 27 21 18 25 31 33 36 42 44 48 57 59 62 64 68 72 78 87 99 105 106 108 98 86 80
34 25 26 31 37 33 42 32 32 33 36 47 47 53 55 38 36 33 34 25 27 21 25 29 30 29 33 39 47 52 54 56 60 63 68 75 85 97 97 107 104 94 78 76
31 28 22 26 37 36 41 30 28 29 39 42 47 49 55 55 45 38 34 28 29 34 32 30 29 29 28 35 43 47 49 53 56 60 68 79 92 100 104 102 87 74 78 77
26 30 20 26 35 32 36 25 27 27 38 42 43 46 45 37 60 52 38 36 32 34 33 29 32 31 35 39 44 45 47 50 55 64 75 85 93 99 104 87 71 77 75 68
19 31 18 18 27 31 38 37 28 25 30 41 46 42 46 48 46 39 40 59 43 34 34 30 31 36 43 43 42 42 43 44 49 59 69 82 89 92 80 69 74 74 69 65
12 20 27 13 14 29 32 38 39 24 23 30 45 40 46 46 49 52 54 43 39 60 48 37 29 30 32 35 38 42 47 52 59 71 81 85 84 68 62 65 67 62 58 62
Wind_Direction_500mb
243 262 264 268 279 284 274 266 266 281 272 282 287 219 263 301 318 318 313 309 309 306 299 289 286 277 267 275 279 296 255 266 249 201 228 217 213 230 223 212 206 204 195 183
269 270 269 277 275 275 276 275 245 266 279 301 324 330 314 315 311 304 304 306 309 306 301 299 290 276 269 259 269 284 269 254 276 282 262 216 207 214 213 216 183 190 186 187
271 268 285 275 251 248 261 261 242 260 281 11 323 313 304 309 309 302 299 297 301 300 294 288 288 281 270 257 260 265 292 238 266 280 270 210 205 207 205 200 180 179 186 173
284 316 235 244 199 238 248 253 261 281 335 311 297 298 301 301 292 289 296 298 297 297 295 289 285 273 268 255 248 247 257 244 246 267 270 208 212 200 195 177 169 161 158 156
281 240 284 279 76 258 264 296 144 319 311 308 311 310 301 303 294 298 296 296 297 300 302 300 288 270 260 251 237 241 239 243 232 256 258 208 199 183 207 178 173 173 176 171
249 249 282 213 286 307 156 285 145 315 308 311 318 307 303 311 307 304 303 300 301 308 301 296 288 272 253 242 232 230 221 219 215 234 232 189 175 172 207 197 184 181 177 181
248 251 273 105 347 337 338 301 312 316 307 304 299 285 296 305 308 308 308 311 313 305 295 285 287 271 244 233 229 218 206 210 206 218 204 189 177 195 188 183 176 175 178 174
312 260 285 356 350 326 276 297 299 298 304 304 299 299 302 304 304 307 313 316 319 306 301 286 278 255 235 222 218 209 199 196 205 211 193 196 191 185 189 179 173 172 169 161
242 251 291 311 300 299 302 298 308 307 308 306 301 302 306 306 307 310 314 320 325 319 299 302 258 231 219 205 200 193 194 193 199 192 182 194 189 177 179 172 168 167 167 165
310 269 278 312 319 314 320 315 311 309 309 309 305 309 307 308 308 314 317 319 325 304 287 291 234 207 204 191 184 186 187 183 194 177 175 179 180 180 176 175 168 168 170 169
261 279 311 285 318 317 323 322 319 319 316 317 316 310 309 307 311 316 318 322 320 311 266 276 210 200 186 176 178 179 178 182 184 179 174 170 174 178 176 175 175 173 177 178
291 300 293 297 312 323 327 324 326 322 323 324 318 311 315 313 316 320 320 324 327 328 246 244 182 181 169 170 172 174 176 176 169 172 170 173 173 164 169 175 180 183 182 179
283 309 310 315 323 329 325 327 326 324 327 317 319 318 321 317 319 320 324 329 342 344 199 174 158 152 167 160 172 181 174 168 171 173 172 171 170 165 160 160 177 185 173 157
321 324 320 324 322 329 330 330 331 334 329 328 332 335 331 322 325 330 334 342 359 32 158 159 157 157 161 159 175 173 173 173 175 177 173 171 169 167 166 165 159 148 145 138
318 326 326 322 327 332 334 333 336 333 336 340 344 345 342 334 332 334 342 1 48 117 136 152 168 166 161 167 167 168 168 176 176 171 169 172 170 168 165 161 150 142 134 132
318 336 339 336 334 336 335 336 336 336 344 349 351 349 343 338 338 344 -0 25 105 117 141 142 158 164 160 164 162 163 175 176 175 167 166 169 168 167 164 158 147 145 142 143
337 342 339 338 340 338 336 343 340 346 350 353 350 348 351 351 357 6 17 43 89 137 147 156 163 169 171 171 166 164 171 174 173 167 170 170 169 168 167 160 155 155 152 150
343 340 337 340 339 337 344 348 349 358 355 355 354 356 5 5 6 15 20 53 98 132 142 155 160 172 183 187 186 177 174 171 168 170 168 169 170 169 166 162 160 158 154 153
349 347 339 346 348 346 350 352 358 4 5 6 19 13 16 15 21 31 39 90 110 124 135 153 162 162 168 175 179 179 180 172 167 168 169 172 171 169 167 165 163 162 157 152
350 349 347 352 354 353 357 3 11 20 22 28 29 31 33 39 52 69 74 86 101 120 139 158 160 161 164 174 182 176 175 174 171 168 172 171 172 169 169 167 162 155 151 156
356 352 353 350 358 356 5 13 23 35 36 34 33 33 41 54 67 82 88 85 87 115 135 151 159 158 164 170 176 173 173 172 175 174 170 170 172 171 168 167 161 152 156 161
8 357 359 4 9 358 10 23 34 39 38 38 34 41 52 60 66 76 96 94 100 121 136 148 157 161 167 171 172 172 173 173 173 173 173 173 173 171 166 160 155 154 157 163
17 9 6 10 16 3 7 27 37 39 36 34 34 36 39 58 67 74 71 79 110 125 124 131 142 153 163 168 169 172 172 173 173 172 173 173 172 170 166 163 164 158 162 164
18 20 17 13 20 18 16 29 40 52 48 50 45 47 54 63 71 74 82 90 91 102 109 118 130 141 153 160 163 166 168 171 172 172 171 170 169 168 164 159 153 165 169 171
10 17 21 32 27 30 20 46 54 68 66 57 55 55 56 52 61 69 80 93 109 114 119 124 135 142 149 155 156 162 164 168 171 171 170 170 167 163 160 156 164 170 172 175
9 19 33 36 27 34 35 41 52 60 82 75 64 68 69 67 69 66 65 66 87 114 122 127 133 139 141 147 153 155 159 161 165 168 168 164 162 164 161 165 171 174 176 175
354 28 43 59 35 33 40 39 48 57 72 91 73 78 73 71 75 75 75 81 81 70 82 89 106 119 128 135 138 143 148 151 153 156 160 164 164 161 171 176 178 179 178 178
Wind_Speed_850mb
21 29 23 31 39 47 34 34 28 39 36 33 16 12 27 34 44 72 79 72 59 56 56 53 60 64 57 42 26 23 30 21 18 22 38 46 43 40 29 22 32 38 45 48
17 25 28 41 41 44 43 26 12 14 32 15 10 22 39 52 58 74 72 78 66 56 54 54 52 66 56 54 38 22 26 28 24 26 18 41 46 43 29 29 40 43 44 45
21 13 23 20 27 14 10 8 8 16 29 13 20 28 52 63 72 80 66 59 66 65 62 62 61 57 65 62 47 37 23 26 35 32 19 27 42 46 36 33 43 60 52 64
13 11 10 10 6 6 16 16 23 23 14 25 38 55 66 74 73 68 64 73 79 80 72 64 58 59 60 65 54 44 28 16 28 26 18 30 43 42 32 34 43 57 69 65
7 6 24 14 4 3 10 36 6 6 24 46 59 72 58 44 44 69 80 88 83 76 64 59 57 54 60 59 67 49 36 13 25 23 17 28 37 34 23 53 60 60 61 64
3 7 10 7 9 28 1 19 4 13 22 37 57 33 37 68 77 86 88 83 79 69 67 63 60 52 61 63 64 59 41 16 26 20 22 35 50 54 50 56 56 56 57 57
5 9 14 6 35 17 7 9 33 37 50 55 34 39 86 93 95 90 89 85 73 72 67 52 51 54 60 64 60 71 44 17 31 26 25 42 57 46 60 64 66 61 59 57
7 8 13 47 41 6 13 54 45 52 55 65 74 81 76 82 82 88 90 81 74 77 56 48 61 50 56 60 56 69 46 23 40 35 27 39 47 55 64 71 69 64 62 65
8 12 39 53 38 28 31 38 53 59 70 70 71 74 74 81 81 85 76 74 69 54 44 51 28 40 48 55 45 68 50 36 41 39 36 40 45 71 76 75 74 70 71 77
19 10 16 50 40 40 48 53 59 59 71 68 69 74 76 77 81 78 71 75 63 49 35 27 20 35 46 45 49 57 45 52 45 45 50 55 58 74 79 77 77 76 78 82
17 30 46 21 44 46 59 60 62 71 65 72 73 77 73 75 78 68 73 67 55 39 22 17 22 32 48 50 50 58 46 58 53 46 50 64 62 69 73 70 69 77 80 79
9 51 23 39 40 56 63 58 75 70 76 72 71 72 69 71 63 64 69 55 45 24 16 13 28 34 51 41 54 56 64 62 61 59 64 66 66 72 66 63 64 70 70 79
22 37 43 47 55 62 58 72 68 66 68 73 70 64 59 57 56 58 54 47 37 17 14 14 38 48 42 35 48 53 67 64 63 64 65 67 70 76 78 62 66 66 73 72
28 38 36 43 61 67 69 67 66 65 64 60 58 55 51 45 45 49 49 43 24 6 21 33 45 47 42 38 49 59 61 60 61 62 65 68 75 77 76 72 74 76 67 77
28 36 42 51 61 66 63 65 66 63 64 63 57 53 44 42 42 45 41 32 12 18 24 32 36 38 33 43 50 56 61 56 67 70 67 69 79 81 80 84 88 90 96 76
38 46 50 51 58 60 65 62 61 61 61 57 57 52 43 38 30 34 31 27 20 32 35 36 39 33 37 46 51 56 53 62 60 67 68 78 84 87 91 93 93 100 96 85
46 45 46 48 52 59 59 55 52 50 51 52 54 47 35 33 23 28 26 23 16 32 34 46 47 39 38 34 37 41 59 63 61 62 72 80 85 86 93 97 98 98 97 91
33 33 34 42 47 56 56 53 49 45 48 46 40 37 32 32 30 26 23 17 16 27 37 48 50 48 37 31 32 42 53 64 68 65 77 80 82 86 93 98 102 108 105 103
34 36 35 39 42 51 48 48 48 44 41 42 32 33 26 26 24 22 17 16 24 29 34 45 47 45 44 41 39 42 54 66 69 70 74 81 83 89 97 98 104 108 112 111
33 34 34 37 42 48 48 44 45 44 45 40 40 31 28 25 21 29 29 27 26 29 26 33 42 43 47 51 46 56 60 62 67 70 73 81 86 93 99 102 102 105 108 94
32 33 31 38 37 46 49 39 41 44 47 58 54 41 30 24 27 30 33 35 24 20 25 28 39 45 45 48 51 59 61 62 64 67 74 81 88 91 98 102 106 113 98 86
33 28 31 35 36 38 46 35 35 39 46 51 63 57 40 34 30 27 29 27 21 18 25 31 33 36 42 44 48 57 59 62 64 68 72 78 87 99 105 106 108 98 86 80
34 25 26 31 37 33 42 32 32 33 36 47 47 53 55 38 36 33 34 25 27 21 25 29 30 29 33 39 47 52 54 56 60 63 68 75 85 97 97 107 104 94 78 76
31 28 22 26 37 36 41 30 28 29 39 42 47 49 55 55 45 38 34 28 29 34 32 30 29 29 28 35 43 47 49 53 56 60 68 79 92 100 104 102 87 74 78 77
26 30 20 26 35 32 36 25 27 27 38 42 43 46 45 37 60 52 38 36 32 34 33 29 32 31 35 39 44 45 47 50 55 64 75 85 93 99 104 87 71 77 75 68
19 31 18 18 27 31 38 37 28 25 30 41 46 42 46 48 46 39 40 59 43 34 34 30 31 36 43 43 42 42 43 44 49 59 69 82 89 92 80 69 74 74 69 65
12 20 27 13 14 29 32 38 39 24 23 30 45 40 46 46 49 52 54 43 39 60 48 37 29 30 32 35 38 42 47 52 59 71 81 85 84 68 62 65 67 62 58 62
Wind_Direction_850mb
243 262 264 268 279 284 274 266 266 281 272 282 287 219 263 301 318 318 313 309 309 306 299 289 286 277 267 275 279 296 255 266 249 201 228 217 213 230 223 212 206 204 195 183
269 270 269 277 275 275 276 275 245 266 279 301 324 330 314 315 311 304 304 306 309 306 301 299 290 276 269 259 269 284 269 254 276 282 262 216 207 214 213 216 183 190 186 187
271 268 285 275 251 248 261 261 242 260 281 11 323 313 304 309 309 302 299 297 301 300 294 288 288 281 270 257 260 265 292 238 266 280 270 210 205 207 205 200 180 179 186 173
284 316 235 244 199 238 248 253 261 281 335 311 297 298 301 301 292 289 296 298 297 297 295 289 285 273 268 255 248 247 257 244 246 267 270 208 212 200 195 177 169 161 158 156
281 240 284 279 76 258 264 296 144 319 311 308 311 310 301 303 294 298 296 296 297 300 302 300 288 270 260 251 237 241 239 243 232 256 258 208 199 183 207 178 173 173 176 171
249 249 282 213 286 307 156 285 145 315 308 311 318 307 303 311 307 304 303 300 301 308 301 296 288 272 253 242 232 230 221 219 215 234 232 189 175 172 207 197 184 181 177 181
248 251 273 105 347 337 338 301 312 316 307 304 299 285 296 305 308 308 308 311 313 305 295 285 287 271 244 233 229 218 206 210 206 218 204 189 177 195 188 183 176 175 178 174
312 260 285 356 350 326 276 297 299 298 304 304 299 299 302 304 304 307 313 316 319 306 301 286 278 255 235 222 218 209 199 196 205 211 193 196 191 185 189 179 173 172 169 161
242 251 291 311 300 299 302 298 308 307 308 306 301 302 306 306 307 310 314 320 325 319 299 302 258 231 219 205 200 193 194 193 199 192 182 194 189 177 179 172 168 167 167 165
310 269 278 312 319 314 320 315 311 309 309 309 305 309 307 308 308 314 317 319 325 304 287 291 234 207 204 191 184 186 187 183 194 177 175 179 180 180 176 175 168 168 170 169
261 279 311 285 318 317 323 322 319 319 316 317 316 310 309 307 311 316 318 322 320 311 266 276 210 200 186 176 178 179 178 182 184 179 174 170 174 178 176 175 175 173 177 178
291 300 293 297 312 323 327 324 326 322 323 324 318 311 315 313 316 320 320 324 327 328 246 244 182 181 169 170 172 174 176 176 169 172 170 173 173 164 169 175 180 183 182 179
283 309 310 315 323 329 325 327 326 324 327 317 319 318 321 317 319 320 324 329 342 344 199 174 158 152 167 160 172 181 174 168 171 173 172 171 170 165 160 160 177 185 173 157
321 324 320 324 322 329 330 330 331 334 329 328 332 335 331 322 325 330 334 342 359 32 158 159 157 157 161 159 175 173 173 173 175 177 173 171 169 167 166 165 159 148 145 138
318 326 326 322 327 332 334 333 336 333 336 340 344 345 342 334 332 334 342 1 48 117 136 152 168 166 161 167 167 168 168 176 176 171 169 172 170 168 165 161 150 142 134 132
318 336 339 336 334 336 335 336 336 336 344 349 351 349 343 338 338 344 -0 25 105 117 141 142 158 164 160 164 162 163 175 176 175 167 166 169 168 167 164 158 147 145 142 143
337 342 339 338 340 338 336 343 340 346 350 353 350 348 351 351 357 6 17 43 89 137 147 156 163 169 171 171 166 164 171 174 173 167 170 170 169 168 167 160 155 155 152 150
343 340 337 340 339 337 344 348 349 358 355 355 354 356 5 5 6 15 20 53 98 132 142 155 160 172 183 187 186 177 174 171 168 170 168 169 170 169 166 162 160 158 154 153
349 347 339 346 348 346 350 352 358 4 5 6 19 13 16 15 21 31 39 90 110 124 135 153 162 162 168 175 179 179 180 172 167 168 169 172 171 169 167 165 163 162 157 152
350 349 347 352 354 353 357 3 11 20 22 28 29 31 33 39 52 69 74 86 101 120 139 158 160 161 164 174 182 176 175 174 171 168 172 171 172 169 169 167 162 155 151 156
356 352 353 350 358 356 5 13 23 35 36 34 33 33 41 54 67 82 88 85 87 115 135 151 159 158 164 170 176 173 173 172 175 174 170 170 172 171 168 167 161 152 156 161
8 357 359 4 9 358 10 23 34 39 38 38 34 41 52 60 66 76 96 94 100 121 136 148 157 161 167 171 172 172 173 173 173 173 173 173 173 171 166 160 155 154 157 163
17 9 6 10 16 3 7 27 37 39 36 34 34 36 39 58 67 74 71 79 110 125 124 131 142 153 163 168 169 172 172 173 173 172 173 173 172 170 166 163 164 158 162 164
18 20 17 13 20 18 16 29 40 52 48 50 45 47 54 63 71 74 82 90 91 102 109 118 130 141 153 160 163 166 168 171 172 172 171 170 169 168 164 159 153 165 169 171
10 17 21 32 27 30 20 46 54 68 66 57 55 55 56 52 61 69 80 93 109 114 119 124 135 142 149 155 156 162 164 168 171 171 170 170 167 163 160 156 164 170 172 175
9 19 33 36 27 34 35 41 52 60 82 75 64 68 69 67 69 66 65 66 87 114 122 127 133 139 141 147 153 155 159 161 165 168 168 164 162 164 161 165 171 174 176 175
354 28 43 59 35 33 40 39 48 57 72 91 73 78 73 71 75 75 75 81 81 70 82 89 106 119 128 135 138 143 148 151 153 156 160 164 164 161 171 176 178 179 178 178